Year,Month,Day,Hour,Minute,Value (Times are PST for temperature in C)
2014,07,17,09,40,15.50
2014,07,17,09,41,15.40
2014,07,17,09,42,15.30
2014,07,17,09,43,15.10
2014,07,17,09,44,15.00
2014,07,17,09,45,15.10
2014,07,17,09,46,15.20
2014,07,17,09,47,15.20
2014,07,17,09,48,15.20
2014,07,17,09,49,15.20
2014,07,17,09,50,15.20
2014,07,17,09,51,15.10
2014,07,17,09,52,15.00
2014,07,17,09,53,14.90
2014,07,17,09,54,14.90
2014,07,17,09,55,15.00
2014,07,17,09,56,15.20
2014,07,17,09,57,15.30
2014,07,17,09,58,15.50
2014,07,17,09,59,15.60
2014,07,17,10,00,15.80
2014,07,17,10,01,15.80
2014,07,17,10,02,15.80
2014,07,17,10,03,15.80
2014,07,17,10,04,15.80
2014,07,17,10,05,15.80
2014,07,17,10,06,15.80
2014,07,17,10,07,15.80
2014,07,17,10,08,15.90
2014,07,17,10,09,15.90
2014,07,17,10,10,16.10
2014,07,17,10,11,16.10
2014,07,17,10,12,16.10
2014,07,17,10,13,16.00
2014,07,17,10,14,15.90
2014,07,17,10,15,15.80
2014,07,17,10,16,15.80
2014,07,17,10,17,15.80
2014,07,17,10,18,15.80
2014,07,17,10,19,15.80
2014,07,17,10,20,15.80
2014,07,17,10,21,15.80
2014,07,17,10,22,15.90
2014,07,17,10,23,15.90
2014,07,17,10,24,16.00
2014,07,17,10,25,16.10
2014,07,17,10,26,16.10
2014,07,17,10,27,16.20
2014,07,17,10,28,16.30
2014,07,17,10,29,16.10
2014,07,17,10,30,16.00
2014,07,17,10,31,15.80
2014,07,17,10,32,15.70
2014,07,17,10,33,15.60
2014,07,17,10,34,15.60
2014,07,17,10,35,15.50
2014,07,17,10,36,15.50
2014,07,17,10,37,15.40
2014,07,17,10,38,15.50
2014,07,17,10,39,15.60
2014,07,17,10,40,15.60
2014,07,17,10,41,15.70
2014,07,17,10,42,15.70
2014,07,17,10,43,15.80
2014,07,17,10,44,15.80
2014,07,17,10,45,15.80
2014,07,17,10,46,15.80
2014,07,17,10,47,15.80
2014,07,17,10,48,15.80
2014,07,17,10,49,15.70
2014,07,17,10,50,15.70
2014,07,17,10,51,15.60
2014,07,17,10,52,15.60
2014,07,17,10,53,15.50
2014,07,17,10,54,15.40
2014,07,17,10,55,15.30
2014,07,17,10,56,15.30
2014,07,17,10,57,15.30
2014,07,17,10,58,15.30
2014,07,17,10,59,15.20
2014,07,17,11,00,15.20
2014,07,17,11,01,15.30
2014,07,17,11,02,15.30
2014,07,17,11,03,15.40
2014,07,17,11,04,15.30
2014,07,17,11,05,15.30
2014,07,17,11,06,15.30
2014,07,17,11,07,15.30
2014,07,17,11,08,15.30
2014,07,17,11,09,15.40
2014,07,17,11,10,15.40
2014,07,17,11,11,15.50
2014,07,17,11,12,15.60
2014,07,17,11,13,15.70
2014,07,17,11,14,15.80
2014,07,17,11,15,15.80
2014,07,17,11,16,15.80
2014,07,17,11,17,15.90
2014,07,17,11,18,16.00
2014,07,17,11,19,16.20
2014,07,17,11,20,16.30
2014,07,17,11,21,16.40
2014,07,17,11,22,16.40
2014,07,17,11,23,16.40
2014,07,17,11,24,16.40
2014,07,17,11,25,16.50
2014,07,17,11,26,16.60
2014,07,17,11,27,16.70
2014,07,17,11,28,16.70
2014,07,17,11,29,16.60
2014,07,17,11,30,16.60
2014,07,17,11,31,16.50
2014,07,17,11,32,16.40
2014,07,17,11,33,16.20
2014,07,17,11,34,16.10
2014,07,17,11,35,16.00
2014,07,17,11,36,15.90
2014,07,17,11,37,15.80
2014,07,17,11,38,15.60
2014,07,17,11,39,15.40
2014,07,17,11,40,15.30
2014,07,17,11,41,15.30
2014,07,17,11,42,15.30
2014,07,17,11,43,15.30
2014,07,17,11,44,15.20
2014,07,17,11,45,15.30
2014,07,17,11,46,15.20
2014,07,17,11,47,15.20
2014,07,17,11,48,15.20
2014,07,17,11,49,15.30
2014,07,17,11,50,15.20
2014,07,17,11,51,15.10
2014,07,17,11,52,15.10
2014,07,17,11,53,15.20
2014,07,17,11,54,15.20
2014,07,17,11,55,15.20
2014,07,17,11,56,15.20
2014,07,17,11,57,15.30
2014,07,17,11,58,15.30
2014,07,17,11,59,15.20
2014,07,17,12,00,15.20
2014,07,17,12,01,15.20
2014,07,17,12,02,15.20
2014,07,17,12,03,15.20
2014,07,17,12,04,15.20
2014,07,17,12,05,15.20
2014,07,17,12,06,15.20
2014,07,17,12,07,15.20
2014,07,17,12,08,15.20
2014,07,17,12,09,15.20
2014,07,17,12,10,15.20
2014,07,17,12,11,15.20
2014,07,17,12,12,15.20
2014,07,17,12,13,15.20
2014,07,17,12,14,15.30
2014,07,17,12,15,15.30
2014,07,17,12,16,15.30
2014,07,17,12,17,15.30
2014,07,17,12,18,15.40
2014,07,17,12,19,15.40
2014,07,17,12,20,15.50
2014,07,17,12,21,15.40
2014,07,17,12,22,15.50
2014,07,17,12,23,15.50
2014,07,17,12,24,15.50
2014,07,17,12,25,15.50
2014,07,17,12,26,15.40
2014,07,17,12,27,15.40
2014,07,17,12,28,15.40
2014,07,17,12,29,15.40
2014,07,17,12,30,15.50
2014,07,17,12,31,15.40
2014,07,17,12,32,15.30
2014,07,17,12,33,15.20
2014,07,17,12,34,15.00
2014,07,17,12,35,15.00
2014,07,17,12,36,15.00
2014,07,17,12,37,15.00
2014,07,17,12,38,15.10
2014,07,17,12,39,15.10
2014,07,17,12,40,15.10
2014,07,17,12,41,15.20
2014,07,17,12,42,15.40
2014,07,17,12,43,15.50
2014,07,17,12,44,15.50
2014,07,17,12,45,15.50
2014,07,17,12,46,15.40
2014,07,17,12,47,15.40
2014,07,17,12,48,15.50
2014,07,17,12,49,15.50
2014,07,17,12,50,15.50
2014,07,17,12,51,15.40
2014,07,17,12,52,15.30
2014,07,17,12,53,15.30
2014,07,17,12,54,15.40
2014,07,17,12,55,15.50
2014,07,17,12,56,15.60
2014,07,17,12,57,15.70
2014,07,17,12,58,15.80
2014,07,17,12,59,15.80
2014,07,17,13,00,15.80
2014,07,17,13,01,15.90
2014,07,17,13,02,16.10
2014,07,17,13,03,16.10
2014,07,17,13,04,16.10
2014,07,17,13,05,16.10
2014,07,17,13,06,16.00
2014,07,17,13,07,15.90
2014,07,17,13,08,15.90
2014,07,17,13,09,15.90
2014,07,17,13,10,15.90
2014,07,17,13,11,15.90
2014,07,17,13,12,16.00
2014,07,17,13,13,16.10
2014,07,17,13,14,16.10
2014,07,17,13,15,16.10
2014,07,17,13,16,16.00
2014,07,17,13,17,15.90
2014,07,17,13,18,15.80
2014,07,17,13,19,15.90
2014,07,17,13,20,15.90
2014,07,17,13,21,15.90
2014,07,17,13,22,15.90
2014,07,17,13,23,15.90
2014,07,17,13,24,16.00
2014,07,17,13,25,16.10
2014,07,17,13,26,16.10
2014,07,17,13,27,16.00
2014,07,17,13,28,15.90
2014,07,17,13,29,15.90
2014,07,17,13,30,15.90
2014,07,17,13,31,16.00
2014,07,17,13,32,16.10
2014,07,17,13,33,16.10
2014,07,17,13,34,16.10
2014,07,17,13,35,16.10
2014,07,17,13,36,16.20
2014,07,17,13,37,16.30
2014,07,17,13,38,16.50
2014,07,17,13,39,16.60
2014,07,17,13,40,16.70
2014,07,17,13,41,16.70
2014,07,17,13,42,16.80
2014,07,17,13,43,16.80
2014,07,17,13,44,16.90
2014,07,17,13,45,17.00
2014,07,17,13,46,17.20
2014,07,17,13,47,17.30
2014,07,17,13,48,17.40
2014,07,17,13,49,17.40
2014,07,17,13,50,17.30
2014,07,17,13,51,17.30
2014,07,17,13,52,17.30
2014,07,17,13,53,17.20
2014,07,17,13,54,17.10
2014,07,17,13,55,17.10
2014,07,17,13,56,17.20
2014,07,17,13,57,17.30
2014,07,17,13,58,17.30
2014,07,17,13,59,17.30
2014,07,17,14,00,17.20
2014,07,17,14,01,17.10
2014,07,17,14,02,17.10
2014,07,17,14,03,17.10
2014,07,17,14,04,17.20
2014,07,17,14,05,17.20
2014,07,17,14,06,17.20
2014,07,17,14,07,17.30
2014,07,17,14,08,17.30
2014,07,17,14,09,17.30
2014,07,17,14,10,17.40
2014,07,17,14,11,17.50
2014,07,17,14,12,17.60
2014,07,17,14,13,17.70
2014,07,17,14,14,17.80
2014,07,17,14,15,17.80
2014,07,17,14,16,17.80
2014,07,17,14,17,17.90
2014,07,17,14,18,17.90
2014,07,17,14,19,17.90
2014,07,17,14,20,17.80
2014,07,17,14,21,17.70
2014,07,17,14,22,17.70
2014,07,17,14,23,17.70
2014,07,17,14,24,17.70
2014,07,17,14,25,17.70
2014,07,17,14,26,17.80
2014,07,17,14,27,17.90
2014,07,17,14,28,17.90
2014,07,17,14,29,18.00
2014,07,17,14,30,18.00
2014,07,17,14,31,17.90
2014,07,17,14,32,17.80
2014,07,17,14,33,17.90
2014,07,17,14,34,17.90
2014,07,17,14,35,18.00
2014,07,17,14,36,17.90
2014,07,17,14,37,18.10
2014,07,17,14,38,18.30
2014,07,17,14,39,18.40
2014,07,17,14,40,18.40
2014,07,17,14,41,18.40
2014,07,17,14,42,18.30
2014,07,17,14,43,18.20
2014,07,17,14,44,18.20
2014,07,17,14,45,18.40
2014,07,17,14,46,18.50
2014,07,17,14,47,18.60
2014,07,17,14,48,18.60
2014,07,17,14,49,18.50
2014,07,17,14,50,18.40
2014,07,17,14,51,18.50
2014,07,17,14,52,18.50
2014,07,17,14,53,18.50
2014,07,17,14,54,18.60
2014,07,17,14,55,18.50
2014,07,17,14,56,18.60
2014,07,17,14,57,18.60
2014,07,17,14,58,18.60
2014,07,17,14,59,18.60
2014,07,17,15,00,18.70
2014,07,17,15,01,18.70
2014,07,17,15,02,18.50
2014,07,17,15,03,18.40
2014,07,17,15,04,18.40
2014,07,17,15,05,18.50
2014,07,17,15,06,18.50
2014,07,17,15,07,18.60
2014,07,17,15,08,18.70
2014,07,17,15,09,18.90
2014,07,17,15,10,19.00
2014,07,17,15,11,19.10
2014,07,17,15,12,19.10
2014,07,17,15,13,18.90
2014,07,17,15,14,18.80
2014,07,17,15,15,18.90
2014,07,17,15,16,19.00
2014,07,17,15,17,19.00
2014,07,17,15,18,18.90
2014,07,17,15,19,18.90
2014,07,17,15,20,18.90
2014,07,17,15,21,18.90
2014,07,17,15,22,18.80
2014,07,17,15,23,18.90
2014,07,17,15,24,19.00
2014,07,17,15,25,19.10
2014,07,17,15,26,19.10
2014,07,17,15,27,19.20
2014,07,17,15,28,19.20
2014,07,17,15,29,19.20
2014,07,17,15,30,19.30
2014,07,17,15,31,19.40
2014,07,17,15,32,19.40
2014,07,17,15,33,19.30
2014,07,17,15,34,19.20
2014,07,17,15,35,19.20
2014,07,17,15,36,19.20
2014,07,17,15,37,19.20
2014,07,17,15,38,19.20
2014,07,17,15,39,19.30
2014,07,17,15,40,19.20
2014,07,17,15,41,19.30
2014,07,17,15,42,19.30
2014,07,17,15,43,19.40
2014,07,17,15,44,19.30
2014,07,17,15,45,19.40
2014,07,17,15,46,19.40
2014,07,17,15,47,19.30
2014,07,17,15,48,19.40
2014,07,17,15,49,19.40
2014,07,17,15,50,19.40
2014,07,17,15,51,19.60
2014,07,17,15,52,19.70
2014,07,17,15,53,19.80
2014,07,17,15,54,19.80
2014,07,17,15,55,19.80
2014,07,17,15,56,19.90
2014,07,17,15,57,19.90
2014,07,17,15,58,19.90
2014,07,17,15,59,19.80
2014,07,17,16,00,19.90
2014,07,17,16,01,19.80
2014,07,17,16,02,19.90
2014,07,17,16,03,19.90
2014,07,17,16,04,19.90
2014,07,17,16,05,19.90
2014,07,17,16,06,19.70
2014,07,17,16,07,19.70
2014,07,17,16,08,19.80
2014,07,17,16,09,19.90
2014,07,17,16,10,19.90
2014,07,17,16,11,20.00
2014,07,17,16,12,20.20
2014,07,17,16,13,20.20
2014,07,17,16,14,20.30
2014,07,17,16,15,20.40
2014,07,17,16,16,20.50
2014,07,17,16,17,20.50
2014,07,17,16,18,20.40
2014,07,17,16,19,20.50
2014,07,17,16,20,20.60
2014,07,17,16,21,20.70
2014,07,17,16,22,20.60
2014,07,17,16,23,20.70
2014,07,17,16,24,20.70
2014,07,17,16,25,20.70
2014,07,17,16,26,20.80
2014,07,17,16,27,20.90
2014,07,17,16,28,21.00
2014,07,17,16,29,20.90
2014,07,17,16,30,20.90
2014,07,17,16,31,21.00
2014,07,17,16,32,21.00
2014,07,17,16,33,21.00
2014,07,17,16,34,20.90
2014,07,17,16,35,20.80
2014,07,17,16,36,20.80
2014,07,17,16,37,20.80
2014,07,17,16,38,20.90
2014,07,17,16,39,21.00
2014,07,17,16,40,21.10
2014,07,17,16,41,21.20
2014,07,17,16,42,21.30
2014,07,17,16,43,21.30
2014,07,17,16,44,21.30
2014,07,17,16,45,21.30
2014,07,17,16,46,21.30
2014,07,17,16,47,21.40
2014,07,17,16,48,21.30
2014,07,17,16,49,21.30
2014,07,17,16,50,21.00
2014,07,17,16,51,21.00
2014,07,17,16,52,20.90
2014,07,17,16,53,20.80
2014,07,17,16,54,20.90
2014,07,17,16,55,21.00
2014,07,17,16,56,20.90
2014,07,17,16,57,20.80
2014,07,17,16,58,20.90
2014,07,17,16,59,21.10
2014,07,17,17,00,21.20
2014,07,17,17,01,21.30
2014,07,17,17,02,21.20
2014,07,17,17,03,21.00
2014,07,17,17,04,20.90
2014,07,17,17,05,20.80
2014,07,17,17,06,20.70
2014,07,17,17,07,20.80
2014,07,17,17,08,20.80
2014,07,17,17,09,20.80
2014,07,17,17,10,20.80
2014,07,17,17,11,20.70
2014,07,17,17,12,20.50
2014,07,17,17,13,20.50
2014,07,17,17,14,20.50
2014,07,17,17,15,20.60
2014,07,17,17,16,20.60
2014,07,17,17,17,20.60
2014,07,17,17,18,20.60
2014,07,17,17,19,20.60
2014,07,17,17,20,20.50
2014,07,17,17,21,20.60
2014,07,17,17,22,20.60
2014,07,17,17,23,20.60
2014,07,17,17,24,20.60
2014,07,17,17,25,20.60
2014,07,17,17,26,20.50
2014,07,17,17,27,20.50
2014,07,17,17,28,20.40
2014,07,17,17,29,20.30
2014,07,17,17,30,20.30
2014,07,17,17,31,20.40
2014,07,17,17,32,20.40
2014,07,17,17,33,20.20
2014,07,17,17,34,20.20
2014,07,17,17,35,20.20
2014,07,17,17,36,20.20
2014,07,17,17,37,20.20
2014,07,17,17,38,20.20
2014,07,17,17,39,20.20
2014,07,17,17,40,20.20
2014,07,17,17,41,20.10
2014,07,17,17,42,19.90
2014,07,17,17,43,19.70
2014,07,17,17,44,19.60
2014,07,17,17,45,19.60
2014,07,17,17,46,19.60
2014,07,17,17,47,19.60
2014,07,17,17,48,19.70
2014,07,17,17,49,19.80
2014,07,17,17,50,19.90
2014,07,17,17,51,19.90
2014,07,17,17,52,19.90
2014,07,17,17,53,19.90
2014,07,17,17,54,19.90
2014,07,17,17,55,19.90
2014,07,17,17,56,20.00
2014,07,17,17,57,20.10
2014,07,17,17,58,20.20
2014,07,17,17,59,20.20
2014,07,17,18,00,20.20
2014,07,17,18,01,20.20
2014,07,17,18,02,20.20
2014,07,17,18,03,20.30
2014,07,17,18,04,20.50
2014,07,17,18,05,20.50
2014,07,17,18,06,20.60
2014,07,17,18,07,20.50
2014,07,17,18,08,20.50
2014,07,17,18,09,20.50
2014,07,17,18,10,20.50
2014,07,17,18,11,20.40
2014,07,17,18,12,20.30
2014,07,17,18,13,20.20
2014,07,17,18,14,20.20
2014,07,17,18,15,20.20
2014,07,17,18,16,20.20
2014,07,17,18,17,20.40
2014,07,17,18,18,20.50
2014,07,17,18,19,20.50
2014,07,17,18,20,20.50
2014,07,17,18,21,20.40
2014,07,17,18,22,20.40
2014,07,17,18,23,20.30
2014,07,17,18,24,20.30
2014,07,17,18,25,20.30
2014,07,17,18,26,20.30
2014,07,17,18,27,20.20
2014,07,17,18,28,20.20
2014,07,17,18,29,20.20
2014,07,17,18,30,20.00
2014,07,17,18,31,19.90
2014,07,17,18,32,19.90
2014,07,17,18,33,19.90
2014,07,17,18,34,19.80
2014,07,17,18,35,19.70
2014,07,17,18,36,19.70
2014,07,17,18,37,19.70
2014,07,17,18,38,19.70
2014,07,17,18,39,19.70
2014,07,17,18,40,19.70
2014,07,17,18,41,19.80
2014,07,17,18,42,19.80
2014,07,17,18,43,19.80
2014,07,17,18,44,19.90
2014,07,17,18,45,19.90
2014,07,17,18,46,19.90
2014,07,17,18,47,20.00
2014,07,17,18,48,20.10
2014,07,17,18,49,20.20
2014,07,17,18,50,20.20
2014,07,17,18,51,20.20
2014,07,17,18,52,20.30
2014,07,17,18,53,20.30
2014,07,17,18,54,20.40
2014,07,17,18,55,20.50
2014,07,17,18,56,20.60
2014,07,17,18,57,20.60
2014,07,17,18,58,20.70
2014,07,17,18,59,20.70
2014,07,17,19,00,20.80
2014,07,17,19,01,20.80
2014,07,17,19,02,20.90
2014,07,17,19,03,21.00
2014,07,17,19,04,21.00
2014,07,17,19,05,21.00
2014,07,17,19,06,20.90
2014,07,17,19,07,21.00
2014,07,17,19,08,20.90
2014,07,17,19,09,20.90
2014,07,17,19,10,20.80
2014,07,17,19,11,20.80
2014,07,17,19,12,20.70
2014,07,17,19,13,20.70
2014,07,17,19,14,20.60
2014,07,17,19,15,20.50
2014,07,17,19,16,20.50
2014,07,17,19,17,20.50
2014,07,17,19,18,20.40
2014,07,17,19,19,20.40
2014,07,17,19,20,20.40
2014,07,17,19,21,20.30
2014,07,17,19,22,20.30
2014,07,17,19,23,20.20
2014,07,17,19,24,20.20
2014,07,17,19,25,20.20
2014,07,17,19,26,20.20
2014,07,17,19,27,20.20
2014,07,17,19,28,20.20
2014,07,17,19,29,20.20
2014,07,17,19,30,20.20
2014,07,17,19,31,20.20
2014,07,17,19,32,20.20
2014,07,17,19,33,20.20
2014,07,17,19,34,20.20
2014,07,17,19,35,20.20
2014,07,17,19,36,20.20
2014,07,17,19,37,20.10
2014,07,17,19,38,20.00
2014,07,17,19,39,19.90
2014,07,17,19,40,19.90
2014,07,17,19,41,19.90
2014,07,17,19,42,19.90
2014,07,17,19,43,19.90
2014,07,17,19,44,19.90
2014,07,17,19,45,19.80
2014,07,17,19,46,19.70
2014,07,17,19,47,19.60
2014,07,17,19,48,19.50
2014,07,17,19,49,19.50
2014,07,17,19,50,19.50
2014,07,17,19,51,19.50
2014,07,17,19,52,19.50
2014,07,17,19,53,19.50
2014,07,17,19,54,19.50
2014,07,17,19,55,19.50
2014,07,17,19,56,19.40
2014,07,17,19,57,19.40
2014,07,17,19,58,19.30
2014,07,17,19,59,19.30
2014,07,17,20,00,19.20
2014,07,17,20,01,19.20
2014,07,17,20,02,19.10
2014,07,17,20,03,19.20
2014,07,17,20,04,19.20
2014,07,17,20,05,19.20
2014,07,17,20,06,19.20
2014,07,17,20,07,19.20
2014,07,17,20,08,19.20
2014,07,17,20,09,19.20
2014,07,17,20,10,19.20
2014,07,17,20,11,19.20
2014,07,17,20,12,19.20
